Weather History for KJRB - March, 2014

Change the Weather History Date:

Tuesday, March 25, 2014

  Actual Average (KNYC) Record (KNYC)
Temperature  
Mean Temperature 34 °F 45 °F  
Max Temperature 39 °F 53 °F 79 °F (1963)
Min Temperature 28 °F 38 °F 13 °F (1878)
Degree Days  
Heating Degree Days 32 20  
Month to date heating degree days 588  
Since 1 July heating degree days 4110  
Cooling Degree Days 0 0  
Month to date cooling degree days 0  
Year to date cooling degree days 0  
Moisture  
Dew Point 17 °F    
Average Humidity 51    
Maximum Humidity 70    
Minimum Humidity 31    
Precipitation  
Precipitation 0.24 in 0.15 in 4.25 in (1876)
Month to date precipitation 3.44  
Year to date precipitation 10.18  
Snow  
Snow 0.00 in 0.10 in 2.30 in (1872)
Month to date snowfall 3.5  
Since 1 July snowfall 24.8  
Snow Depth -    
Sea Level Pressure  
Sea Level Pressure 30.06 in    
Wind  
Wind Speed 6 mph (ESE)    
Max Wind Speed 15 mph    
Max Gust Speed 46 mph    
Visibility 10 miles    
Events      
T = Trace of Precipitation, MM = Missing Value Source: NWS Daily Summary

Daily Weather History Graph

Daily Weather History Graph

Search for Another Location

Airport or City:

Trip Planner

Search our weather history database for the weather conditions in past years. The results will help you decide how hot, cold, wet, or windy it might be!

Date:

Astronomy

Mar. 25, 2014 Rise Set
Actual Time 6:51 AM EDT 7:13 PM EDT
Civil Twilight 6:23 AM EDT 7:40 PM EDT
Nautical Twilight 5:51 AM EDT 8:13 PM EDT
Astronomical Twilight 5:18 AM EDT 8:46 PM EDT
Moon 3:12 AM EDT (3/25) 1:39 PM EDT (3/25)
Length of Visible Light 13h 17m
Length of Day
12h 22m
Waning Crescent, 32% of the Moon is Illuminated
Mar 25
Waning Crescent
Mar 30
New
Apr 7
First Quarter
Apr 15
Full
Apr 22
Last Quarter

Hourly Weather History & Observations

Time (EDT) Temp. Windchill Dew Point Humidity Pressure Visibility Wind Dir Wind Speed Gust Speed Precip Events Conditions
12:15 AM 30.2 °F 25.4 °F 14.0 °F 51% 30.18 in 10.0 mi North 4.6 mph 19.6 mph N/A   Clear
12:35 AM 30.2 °F 24.3 °F 15.8 °F 55% 30.18 in 10.0 mi ENE 5.8 mph - N/A   Clear
12:55 AM 30.2 °F 22.6 °F 14.0 °F 51% 30.18 in 10.0 mi NE 8.1 mph - N/A   Clear
1:15 AM 30.2 °F - 12.2 °F 47% 30.17 in 10.0 mi Calm Calm - N/A   Clear
1:35 AM 30.2 °F 24.3 °F 15.8 °F 55% 30.17 in 10.0 mi NE 5.8 mph - N/A   Clear
1:55 AM 30.2 °F 24.3 °F 17.6 °F 60% 30.17 in 10.0 mi East 5.8 mph - N/A   Clear
2:15 AM 30.2 °F 26.7 °F 15.8 °F 55% 30.17 in 10.0 mi East 3.5 mph - N/A   Clear
2:35 AM 30.2 °F 26.7 °F 17.6 °F 60% 30.17 in 10.0 mi East 3.5 mph - N/A   Clear
2:55 AM 30.2 °F 24.3 °F 17.6 °F 60% 30.17 in 10.0 mi East 5.8 mph - N/A   Clear
3:15 AM 30.2 °F 26.7 °F 17.6 °F 60% 30.16 in 10.0 mi ENE 3.5 mph - N/A   Clear
3:35 AM 30.2 °F 26.7 °F 14.0 °F 51% 30.16 in 10.0 mi East 3.5 mph - N/A   Clear
3:55 AM 30.2 °F 25.4 °F 15.8 °F 55% 30.15 in 10.0 mi East 4.6 mph - N/A   Clear
4:15 AM 30.2 °F 24.3 °F 15.8 °F 55% 30.15 in 10.0 mi ENE 5.8 mph - N/A   Clear
4:35 AM 30.2 °F 26.7 °F 17.6 °F 60% 30.15 in 10.0 mi East 3.5 mph - N/A   Clear
4:55 AM 30.2 °F 25.4 °F 14.0 °F 51% 30.15 in 10.0 mi SSE 4.6 mph - N/A   Clear
5:15 AM 28.4 °F 21.2 °F 12.2 °F 51% 30.15 in 10.0 mi SSE 6.9 mph - N/A   Clear
5:35 AM 28.4 °F 23.3 °F 12.2 °F 51% 30.16 in 10.0 mi SE 4.6 mph - N/A   Mostly Cloudy
5:55 AM 28.4 °F 23.3 °F 14.0 °F 55% 30.15 in 10.0 mi SSE 4.6 mph - N/A   Overcast
6:15 AM 30.2 °F 24.3 °F 15.8 °F 55% 30.15 in 10.0 mi SE 5.8 mph - N/A   Overcast
6:35 AM 30.2 °F - 17.6 °F 60% 30.15 in 10.0 mi Calm Calm - N/A   Overcast
6:55 AM 30.2 °F 25.4 °F 17.6 °F 60% 30.14 in 10.0 mi East 4.6 mph - N/A   Overcast
7:15 AM 30.2 °F 24.3 °F 19.4 °F 64% 30.14 in 10.0 mi NE 5.8 mph - N/A   Overcast
7:35 AM 30.2 °F 24.3 °F 19.4 °F 64% 30.14 in 10.0 mi ENE 5.8 mph - N/A   Mostly Cloudy
7:55 AM 30.2 °F 25.4 °F 19.4 °F 64% 30.13 in 10.0 mi NE 4.6 mph - N/A   Mostly Cloudy
8:15 AM 32.0 °F 28.7 °F 19.4 °F 60% 30.13 in 10.0 mi NE 3.5 mph - N/A   Scattered Clouds
8:35 AM 32.0 °F - 17.6 °F 55% 30.13 in 10.0 mi Calm Calm - N/A   Clear
8:55 AM 33.8 °F 28.6 °F 12.2 °F 41% 30.13 in 10.0 mi South 5.8 mph - N/A   Clear
9:15 AM 33.8 °F 29.6 °F 6.8 °F 32% 30.13 in 10.0 mi South 4.6 mph - N/A   Clear
9:35 AM 33.8 °F 30.8 °F 8.6 °F 35% 30.13 in 10.0 mi SW 3.5 mph - N/A   Clear
9:55 AM 33.8 °F 29.6 °F 6.8 °F 32% 30.12 in 10.0 mi WSW 4.6 mph - N/A   Clear
10:15 AM 33.8 °F 29.6 °F 6.8 °F 32% 30.12 in 10.0 mi WSW 4.6 mph - 0.02 in   Clear
10:35 AM 35.6 °F 29.9 °F 8.6 °F 33% 30.12 in 10.0 mi WSW 6.9 mph - 0.02 in   Clear
10:55 AM 35.6 °F 29.9 °F 8.6 °F 33% 30.13 in 9.0 mi SW 6.9 mph - 0.03 in   Clear
11:15 AM 35.6 °F 29.9 °F 10.4 °F 35% 30.13 in 10.0 mi SW 6.9 mph - N/A   Partly Cloudy
11:35 AM 37.4 °F 30.8 °F 12.2 °F 36% 30.12 in 10.0 mi SW 9.2 mph - N/A   Clear
11:55 AM 37.4 °F 32.1 °F 10.4 °F 33% 30.12 in 10.0 mi SW 6.9 mph - N/A   Clear
12:15 PM 37.4 °F 32.8 °F 10.4 °F 33% 30.12 in 10.0 mi SW 5.8 mph - N/A   Clear
12:35 PM 37.4 °F 31.4 °F 10.4 °F 33% 30.11 in 10.0 mi SSW 8.1 mph 46.0 mph 0.21 in   Mostly Cloudy
12:55 PM 39.2 °F 34.2 °F 10.4 °F 31% 30.10 in 10.0 mi South 6.9 mph - 0.21 in   Overcast
1:15 PM 37.4 °F 30.3 °F 12.2 °F 36% 30.09 in 10.0 mi SE 10.4 mph - N/A   Overcast
1:35 PM 37.4 °F 33.8 °F 12.2 °F 36% 30.08 in 10.0 mi SSE 4.6 mph 17.3 mph N/A   Overcast
1:55 PM 37.4 °F - 14.0 °F 38% 30.07 in 10.0 mi Calm Calm - N/A   Overcast
2:15 PM 37.4 °F 32.1 °F 15.8 °F 41% 30.05 in 10.0 mi South 6.9 mph 16.1 mph N/A   Overcast
2:35 PM 37.4 °F 32.1 °F 15.8 °F 41% 30.04 in 10.0 mi SSW 6.9 mph - N/A   Mostly Cloudy
2:55 PM 37.4 °F 31.4 °F 15.8 °F 41% 30.03 in 10.0 mi SE 8.1 mph - N/A   Scattered Clouds
3:15 PM 37.4 °F 31.4 °F 19.4 °F 48% 30.02 in 10.0 mi SSE 8.1 mph - N/A   Partly Cloudy
3:35 PM 37.4 °F 31.4 °F 15.8 °F 41% 30.01 in 10.0 mi South 8.1 mph - N/A   Clear
3:55 PM 37.4 °F 32.1 °F 17.6 °F 45% 30.00 in 10.0 mi SE 6.9 mph - N/A   Clear
4:15 PM 37.4 °F 32.8 °F 17.6 °F 45% 29.99 in 10.0 mi ESE 5.8 mph - N/A   Partly Cloudy
4:35 PM 37.4 °F 31.4 °F 19.4 °F 48% 29.97 in 10.0 mi SSE 8.1 mph - N/A   Clear
4:55 PM 37.4 °F 32.1 °F 19.4 °F 48% 29.95 in 10.0 mi SSE 6.9 mph - N/A   Clear
5:15 PM 37.4 °F 32.1 °F 24.8 °F 60% 29.94 in 10.0 mi ENE 6.9 mph - N/A   Clear
5:35 PM 37.4 °F 33.8 °F 24.8 °F 60% 29.94 in 10.0 mi ESE 4.6 mph - N/A   Partly Cloudy
5:55 PM 37.4 °F 33.8 °F 23.0 °F 56% 29.92 in 10.0 mi East 4.6 mph - N/A   Mostly Cloudy
6:15 PM 37.4 °F 32.8 °F 23.0 °F 56% 29.92 in 9.0 mi ESE 5.8 mph - N/A   Overcast
6:35 PM 37.4 °F 32.8 °F 21.2 °F 52% 29.93 in 10.0 mi East 5.8 mph - N/A   Overcast
6:55 PM 37.4 °F 32.1 °F 23.0 °F 56% 29.93 in 10.0 mi East 6.9 mph - N/A   Overcast
7:15 PM 37.4 °F 31.4 °F 21.2 °F 52% 29.93 in 10.0 mi ENE 8.1 mph - N/A   Overcast
7:35 PM 35.6 °F 28.0 °F 21.2 °F 56% 29.93 in 10.0 mi ENE 10.4 mph - N/A   Overcast
7:55 PM 35.6 °F 28.6 °F 21.2 °F 56% 29.93 in 10.0 mi East 9.2 mph - N/A   Overcast
8:15 PM 35.6 °F 26.6 °F 21.2 °F 56% 29.93 in 10.0 mi NE 13.8 mph - N/A   Overcast
8:35 PM 35.6 °F 28.6 °F 21.2 °F 56% 29.93 in 10.0 mi NE 9.2 mph - N/A   Overcast
8:55 PM 35.6 °F 28.6 °F 23.0 °F 60% 29.94 in 10.0 mi East 9.2 mph 16.1 mph N/A   Overcast
9:15 PM 35.6 °F 28.6 °F 21.2 °F 56% 29.93 in 10.0 mi ENE 9.2 mph - N/A   Overcast
9:35 PM 35.6 °F 26.6 °F 24.8 °F 65% 29.92 in 10.0 mi NE 13.8 mph 17.3 mph N/A   Overcast
9:55 PM 33.8 °F 25.3 °F 24.8 °F 70% 29.92 in 10.0 mi NE 11.5 mph 16.1 mph N/A   Overcast
10:15 PM 33.8 °F 25.8 °F 24.8 °F 70% 29.91 in 10.0 mi ENE 10.4 mph - N/A   Overcast
10:35 PM 33.8 °F 24.3 °F 21.2 °F 60% 29.89 in 10.0 mi NE 13.8 mph 18.4 mph N/A   Overcast
10:55 PM 33.8 °F 23.9 °F 23.0 °F 65% 29.90 in 10.0 mi NE 15.0 mph - N/A   Overcast
11:15 PM 33.8 °F 25.3 °F 23.0 °F 65% 29.89 in 10.0 mi NE 11.5 mph 19.6 mph N/A   Overcast
11:35 PM 33.8 °F 25.8 °F 23.0 °F 65% 29.88 in 10.0 mi NNE 10.4 mph 17.3 mph N/A   Overcast
11:55 PM 33.8 °F 26.4 °F 24.8 °F 70% 29.87 in 10.0 mi NE 9.2 mph 17.3 mph N/A   Overcast